User: anonymous   Login
Location: Buena Vista
(37.7110°N, 119.7938°W)
Time: 08:56:36
(UTC+00:00)
Language:

QB50P2 - Orbit

View from above orbital plane
View from above orbital plane
View from above satellite
View from above satellite

Ground track
Ground track

The orbit data is extracted from the following two-line orbital elements,

1 40032U 14033Y   24280.61376206  .00022975  00000-0  17819-2 0  9990
2 40032  98.0160 236.2444 0012185 107.5502 252.7053 15.01327651559371
Epoch (UTC): 06 October 2024 14:43:49
Eccentricity: 0.0012185
inclination: 98.0160°
perigee height: 554 km
apogee height: 571 km
right ascension of ascending node: 236.2444°
argument of perigee: 107.5502°
revolutions per day: 15.01327651
mean anomaly at epoch: 252.7053°
orbit number at epoch: 55937

The dashed part of the orbit path shows where the satellite is in the earth's shadow,  

DLR